Location: Unspecified
(52.4292°N, 19.3359°E)
Time: 22:58:26
(UTC+02:00)

Altair - Pass Details

Date: 21 May 2024
Orbit: 1502 x 1682 km, 47.2° (Epoch: 19 June)

Event Time Altitude Azimuth Distance (km) Brightness Sun altitude
Rises 18:53:03 0° 285° (WNW) 4,940 12.2 14.0°
Reaches altitude 10° 18:58:04 10° 265° (W) 3,942 11.3 13.3°
Maximum altitude 19:03:06 15° 235° (SW) 3,523 10.1 12.5°
Drops below altitude 10° 19:08:06 10° 204° (SSW) 3,896 9.7 11.8°
Sets 19:13:03 0° 183° (S) 4,848 10.0 11.1°
